MDC414 CYHU-KFLL

Flight info

Callsign MDC414
Flight time N/A
Altitude 20000
Route FAWNS DCT BUGSY DCT ALB/N0280F160 T299 AGNEZ/N0274F200 DCT BIGGY DCT OOD DCT GHAWK/N0272F220 DCT DFENC DCT ELMSZ Q97 PRMUS DCT KENLL TARPN3
Aircraft PC12/L-SDFGRWY/S

Departure

Time 2026-04-22 21:37
Airport Montréal / Saint-Hubert Metropolitan Airport (CYHU)

Arrival

Time N/A
Airport Fort Lauderdale Hollywood International Airport (KFLL)
Time Latitude Longitude Altitude Speed Heading
2026-04-22 21:04 45.51262 -73.41140 87 ft 0 kts 349°
2026-04-22 21:28 45.51263 -73.41140 87 ft 1 kts 349°
2026-04-22 21:28 45.51288 -73.41157 88 ft 7 kts 315°
2026-04-22 21:28 45.51325 -73.41207 90 ft 7 kts 316°
2026-04-22 21:28 45.51361 -73.41248 89 ft 5 kts
2026-04-22 21:29 45.51380 -73.41226 89 ft 4 kts 47°
2026-04-22 21:29 45.51409 -73.41182 90 ft 11 kts 47°
2026-04-22 21:29 45.51469 -73.41091 91 ft 13 kts 47°
2026-04-22 21:29 45.51535 -73.40993 90 ft 14 kts 47°
2026-04-22 21:30 45.51602 -73.40888 92 ft 14 kts 46°
2026-04-22 21:30 45.51672 -73.40783 90 ft 15 kts 48°
2026-04-22 21:30 45.51745 -73.40669 88 ft 15 kts 46°
2026-04-22 21:30 45.51798 -73.40621 89 ft 5 kts 346°
2026-04-22 21:31 45.51828 -73.40658 89 ft 6 kts 318°
2026-04-22 21:31 45.51867 -73.40709 91 ft 9 kts 317°
2026-04-22 21:31 45.51922 -73.40782 92 ft 13 kts 317°
2026-04-22 21:31 45.52002 -73.40887 91 ft 18 kts 317°
2026-04-22 21:32 45.52094 -73.41010 93 ft 17 kts 318°
2026-04-22 21:32 45.52166 -73.41107 91 ft 8 kts 318°
2026-04-22 21:32 45.52206 -73.41170 92 ft 10 kts 281°
2026-04-22 21:32 45.52181 -73.41230 91 ft 0 kts 225°
2026-04-22 21:33 45.52181 -73.41231 91 ft 0 kts 225°
2026-04-22 21:35 45.52101 -73.41354 90 ft 37 kts 228°
2026-04-22 21:36 45.51831 -73.41764 95 ft 75 kts 227°
2026-04-22 21:36 45.51433 -73.42374 207 ft 89 kts 227°
2026-04-22 21:36 45.51003 -73.43095 349 ft 101 kts 230°
2026-04-22 21:36 45.50537 -73.43868 590 ft 105 kts 228°
2026-04-22 21:37 45.50043 -73.44665 834 ft 111 kts 227°
2026-04-22 21:37 45.49511 -73.45537 1114 ft 122 kts 226°
2026-04-22 21:37 45.48856 -73.46392 1383 ft 135 kts 218°
2026-04-22 21:37 45.48103 -73.47322 1656 ft 150 kts 219°
2026-04-22 21:38 45.47293 -73.48350 1924 ft 163 kts 220°
2026-04-22 21:38 45.46417 -73.49468 2190 ft 174 kts 221°
2026-04-22 21:38 45.45497 -73.50644 2449 ft 181 kts 220°
2026-04-22 21:38 45.44545 -73.51857 2706 ft 185 kts 221°
2026-04-22 21:39 45.43576 -73.53090 2967 ft 188 kts 221°
2026-04-22 21:39 45.42596 -73.54343 3229 ft 191 kts 223°
2026-04-22 21:39 45.41605 -73.55610 3482 ft 193 kts 223°
2026-04-22 21:39 45.40599 -73.56892 3738 ft 194 kts 224°
2026-04-22 21:40 45.39587 -73.58182 3995 ft 197 kts 224°
2026-04-22 21:40 45.38568 -73.59480 4310 ft 195 kts 224°
2026-04-22 21:40 45.37570 -73.60754 4700 ft 191 kts 225°
2026-04-22 21:40 45.36583 -73.62010 5088 ft 188 kts 225°
2026-04-22 21:41 45.35615 -73.63243 5467 ft 186 kts 225°
2026-04-22 21:41 45.34650 -73.64469 5853 ft 184 kts 225°
2026-04-22 21:41 45.33699 -73.65680 6247 ft 182 kts 225°
2026-04-22 21:41 45.32759 -73.66875 6624 ft 180 kts 225°
2026-04-22 21:42 45.31827 -73.68060 6996 ft 180 kts 226°
2026-04-22 21:42 45.30891 -73.69250 7373 ft 181 kts 226°
2026-04-22 21:42 45.29951 -73.70445 7751 ft 182 kts 226°
2026-04-22 21:42 45.29010 -73.71641 8135 ft 181 kts 226°
2026-04-22 21:43 45.28075 -73.72827 8521 ft 180 kts 227°
2026-04-22 21:43 45.27153 -73.73995 8912 ft 179 kts 227°
2026-04-22 21:43 45.26213 -73.75186 9312 ft 179 kts 227°
2026-04-22 21:43 45.25299 -73.76344 9708 ft 178 kts 227°
2026-04-22 21:44 45.24374 -73.77515 10092 ft 178 kts 228°
2026-04-22 21:44 45.23456 -73.78678 10456 ft 178 kts 229°
2026-04-22 21:44 45.22530 -73.79850 10826 ft 178 kts 229°
2026-04-22 21:44 45.21606 -73.81018 11199 ft 178 kts 229°
2026-04-22 21:45 45.20683 -73.82186 11576 ft 178 kts 230°
2026-04-22 21:45 45.19759 -73.83354 11960 ft 178 kts 230°
2026-04-22 21:45 45.18838 -73.84518 12347 ft 178 kts 230°
2026-04-22 21:45 45.17912 -73.85687 12738 ft 178 kts 231°
2026-04-22 21:46 45.16987 -73.86855 13138 ft 178 kts 231°
2026-04-22 21:46 45.16064 -73.88019 13541 ft 177 kts 231°
2026-04-22 21:46 45.15145 -73.89179 13928 ft 177 kts 232°
2026-04-22 21:46 45.14224 -73.90340 14291 ft 177 kts 232°
2026-04-22 21:47 45.13305 -73.91499 14656 ft 177 kts 232°
2026-04-22 21:47 45.12386 -73.92657 15026 ft 176 kts 233°
2026-04-22 21:47 45.11472 -73.93808 15402 ft 176 kts 233°
2026-04-22 21:47 45.10563 -73.94951 15778 ft 175 kts 233°
2026-04-22 21:48 45.09654 -73.96094 16163 ft 174 kts 234°
2026-04-22 21:48 45.08753 -73.97225 16552 ft 173 kts 234°
2026-04-22 21:48 45.07856 -73.98352 16947 ft 172 kts 234°
2026-04-22 21:48 45.06969 -73.99466 17347 ft 171 kts 235°
2026-04-22 21:49 45.06081 -74.00581 17747 ft 169 kts 235°
2026-04-22 21:49 45.05204 -74.01681 18168 ft 168 kts 236°
2026-04-22 21:49 45.04345 -74.02759 18527 ft 167 kts 236°
2026-04-22 21:49 45.03482 -74.03840 18890 ft 165 kts 237°
2026-04-22 21:50 45.02615 -74.04927 19258 ft 164 kts 237°
2026-04-22 21:50 45.01767 -74.05989 19628 ft 162 kts 238°
2026-04-22 21:50 45.00925 -74.07045 19968 ft 164 kts 238°
2026-04-22 21:50 45.00032 -74.08194 19980 ft 183 kts 237°
2026-04-22 21:51 44.98819 -74.09152 19984 ft 222 kts 208°
2026-04-22 21:51 44.97235 -74.09497 19988 ft 242 kts 198°
2026-04-22 21:51 44.95521 -74.09763 19987 ft 253 kts 198°
2026-04-22 21:52 44.91938 -74.10439 19984 ft 267 kts 199°
2026-04-22 21:52 44.90078 -74.10799 19988 ft 272 kts 198°
2026-04-22 21:52 44.88187 -74.11153 19978 ft 276 kts 198°
2026-04-22 21:52 44.86273 -74.11506 19979 ft 279 kts 198°
2026-04-22 21:53 44.84349 -74.11865 19978 ft 281 kts 198°
2026-04-22 21:53 44.82404 -74.12233 19976 ft 282 kts 198°
2026-04-22 21:53 44.80454 -74.12602 19971 ft 283 kts 198°
2026-04-22 21:53 44.78509 -74.12968 19973 ft 283 kts 198°
2026-04-22 21:54 44.76547 -74.13336 19969 ft 284 kts 198°
2026-04-22 21:54 44.74561 -74.13710 19967 ft 284 kts 198°
2026-04-22 21:54 44.72626 -74.14046 19963 ft 286 kts 194°
2026-04-22 21:54 44.70606 -74.13862 19958 ft 295 kts 181°
2026-04-22 21:55 44.68560 -74.13473 19958 ft 296 kts 181°
2026-04-22 21:55 44.66524 -74.13113 19953 ft 296 kts 182°
2026-04-22 21:55 44.64477 -74.12763 19951 ft 297 kts 182°
2026-04-22 21:55 44.62421 -74.12403 19957 ft 298 kts 181°
2026-04-22 21:56 44.60363 -74.12035 19955 ft 298 kts 181°
2026-04-22 21:56 44.58305 -74.11670 19951 ft 298 kts 182°
2026-04-22 21:56 44.56249 -74.11310 19949 ft 299 kts 182°
2026-04-22 21:56 44.54181 -74.10948 19951 ft 298 kts 181°
2026-04-22 21:57 44.52127 -74.10585 19951 ft 298 kts 182°
2026-04-22 21:57 44.50068 -74.10223 19946 ft 299 kts 182°
2026-04-22 21:57 44.48004 -74.09861 19944 ft 299 kts 182°
2026-04-22 21:57 44.45936 -74.09499 19946 ft 299 kts 182°
2026-04-22 21:58 44.43865 -74.09135 19943 ft 299 kts 182°
2026-04-22 21:58 44.41801 -74.08773 19944 ft 299 kts 182°
2026-04-22 21:58 44.39734 -74.08411 19944 ft 299 kts 182°
2026-04-22 21:58 44.37664 -74.08049 19944 ft 299 kts 182°
2026-04-22 21:59 44.35567 -74.07683 19944 ft 300 kts 182°
2026-04-22 21:59 44.33496 -74.07322 19944 ft 301 kts 182°
2026-04-22 21:59 44.31441 -74.06963 19943 ft 301 kts 182°
2026-04-22 21:59 44.30043 -74.06718 19947 ft 301 kts 182°
2026-04-22 22:00 44.27279 -74.06236 19946 ft 302 kts 182°
2026-04-22 22:00 44.25197 -74.05873 19941 ft 302 kts 182°
2026-04-22 22:00 44.23118 -74.05511 19946 ft 301 kts 182°
2026-04-22 22:00 44.21036 -74.05149 19942 ft 301 kts 182°
2026-04-22 22:01 44.18953 -74.04787 19946 ft 302 kts 182°
2026-04-22 22:01 44.17548 -74.04544 19941 ft 303 kts 181°
2026-04-22 22:01 44.14785 -74.04063 19951 ft 302 kts 181°